CW9688 Weather Reports


time (UTC)temp
F
wind
direction
speed
knots
gust
knots
rain 1hr
in
rain 24hr
in
rain mn
in
humidity
%
barometer
mb
20260503040805 54 132 0.9 1.7 0.00 0.00 0.00 26 1010.3
20260503040304 54 131 1.7 4.3 0.00 0.00 0.00 25 1010.3
20260503035305 54 110 0.9 1.7 0.00 0.00 0.00 24 1010.3
20260503033305 54 80 0.9 1.7 0.00 0.00 0.00 24 1010.3
20260503032305 55 71 0.0 1.7 0.00 0.00 0.00 23 1010.3
20260503031805 55 71 0.0 0.9 0.00 0.00 0.00 24 1010.3
20260503031304 55 71 0.9 2.6 0.00 0.00 0.00 23 1010.3
20260503030805 55 58 0.0 0.0 0.00 0.00 0.00 22 1010.3
20260503030305 56 58 0.0 0.0 0.00 0.00 0.00 22 1010.3
20260503025804 56 58 0.0 0.0 0.00 0.00 0.00 21 1010.3
20260503025305 56 58 0.0 0.0 0.00 0.00 0.00 21 1010.3
20260503024805 57 58 0.0 0.0 0.00 0.00 0.00 20 1010.3
20260503024304 57 58 0.0 0.0 0.00 0.00 0.00 19 1010.3
20260503023805 58 58 0.0 0.0 0.00 0.00 0.00 19 1010.3
20260503022305 59 58 0.0 0.0 0.00 0.00 0.00 17 1010.3
20260503020805 62 58 0.0 0.9 0.00 0.00 0.00 14 1010.3
20260503015804 64 58 0.9 2.6 0.00 0.00 0.00 13 1010.3
20260503014804 66 58 0.9 2.6 0.00 0.00 0.00 11 1010.3
20260503013804 67 85 2.6 4.3 0.00 0.00 0.00 11 1010.3
20260503013304 67 72 2.6 4.3 0.00 0.00 0.00 11 1010.3
20260503012305 68 91 2.6 5.2 0.00 0.00 0.00 9 1010.3
20260503010804 69 149 3.5 7.8 0.00 0.00 0.00 9 1010.3
20260503010304 69 200 2.6 5.2 0.00 0.00 0.00 8 1010.3
20260503004804 69 57 5.2 8.7 0.00 0.00 0.00 8 1010.3
20260503003804 70 87 2.6 6.1 0.00 0.00 0.00 8 1016.9
20260503001804 71 87 7.0 11.3 0.00 0.00 0.00 8 1016.9
20260503001304 71 139 2.6 8.7 0.00 0.00 0.00 9 1016.9
20260502235305 71 99 2.6 6.1 0.00 0.00 0.00 8 1016.9
20260502234304 71 94 6.1 10.4 0.00 0.00 0.00 8 1016.9
20260502232804 72 114 5.2 10.4 0.00 0.00 0.00 8 1016.9
20260502232305 72 110 2.6 10.4 0.00 0.00 0.00 7 1016.9
20260502231305 72 103 5.2 10.4 0.00 0.00 0.00 7 1016.9
20260502230305 73 121 4.3 11.3 0.00 0.00 0.00 8 1016.9
20260502225304 72 124 5.2 10.4 0.00 0.00 0.00 8 1016.9
20260502224804 72 120 1.7 7.0 0.00 0.00 0.00 7 1016.9
20260502221805 72 156 4.3 11.3 0.00 0.00 0.00 7 1016.9
20260502220804 72 44 4.3 10.4 0.00 0.00 0.00 8 1016.9
20260502215804 72 67 6.1 11.3 0.00 0.00 0.00 8 1016.9
20260502215305 72 97 7.8 13.9 0.00 0.00 0.00 10 1016.9
20260502214805 71 67 3.5 6.1 0.00 0.00 0.00 9 1016.9
20260502214304 72 18 2.6 10.4 0.00 0.00 0.00 8 1016.9
20260502213804 73 90 5.2 10.4 0.00 0.00 0.00 10 1016.9
20260502211304 71 222 4.3 7.8 0.00 0.00 0.00 10 1016.9
20260502205804 72 85 5.2 11.3 0.00 0.00 0.00 11 1016.9
20260502204804 72 107 5.2 7.8 0.00 0.00 0.00 12 1016.9
20260502203804 72 146 4.3 7.8 0.00 0.00 0.00 11 1016.9
20260502202804 69 45 4.3 7.0 0.00 0.00 0.00 12 1016.9
20260502194804 71 72 4.3 11.3 0.00 0.00 0.00 14 1016.9
20260502193804 69 44 4.3 11.3 0.00 0.00 0.00 13 1016.9
20260502192804 68 41 2.6 8.7 0.00 0.00 0.00 16 1016.9
20260502191804 69 49 4.3 7.8 0.00 0.00 0.00 14 1016.9
20260502190304 67 34 3.5 8.7 0.00 0.00 0.00 17 1016.9
20260502185804 67 68 5.2 8.7 0.00 0.00 0.00 17 1016.9
20260502185305 66 35 5.2 7.8 0.00 0.00 0.00 17 1016.9
20260502184804 66 287 1.7 4.3 0.00 0.00 0.00 17 1016.9
20260502184304 66 106 4.3 7.0 0.00 0.00 0.00 18 1016.9
20260502183804 65 65 3.5 8.7 0.00 0.00 0.00 18 1016.9
20260502182305 66 56 5.2 8.7 0.00 0.00 0.00 20 1016.9
20260502180804 65 61 4.3 7.0 0.00 0.00 0.00 18 1016.9
20260502180304 65 117 1.7 7.0 0.00 0.00 0.00 18 1016.9
20260502170304 64 8 5.2 8.7 0.00 0.00 0.00 21 1016.9
20260502163804 64 79 2.6 6.1 0.00 0.00 0.00 22 1016.9
20260502161304 61 229 2.6 4.3 0.00 0.00 0.00 22 1016.9
20260502150805 55 255 2.6 4.3 0.00 0.00 0.00 31 1016.9
20260502123304 35 24 0.9 1.7 0.00 0.00 0.00 67 1015.2
20260502120304 34 24 0.0 0.9 0.00 0.00 0.00 67 1015.2
20260502111804 35 24 1.7 1.7 0.00 0.00 0.00 63 1015.2
20260502111304 35 24 0.9 1.7 0.00 0.00 0.00 63 1015.2
20260502105306 35 24 0.9 1.7 0.00 0.00 0.00 63 1015.2
20260502104804 35 24 1.7 2.6 0.00 0.00 0.00 62 1015.2
20260502103304 36 24 1.7 1.7 0.00 0.00 0.00 60 1015.2
20260502102804 36 24 0.0 0.0 0.00 0.00 0.00 59 1015.2
20260502100804 37 24 0.9 1.7 0.00 0.00 0.00 58 1015.2
20260502070304 44 37 0.9 1.7 0.00 0.00 0.00 43 1015.2
20260502065804 44 37 0.9 1.7 0.00 0.00 0.00 43 1015.2
20260502065306 44 37 0.9 1.7 0.00 0.00 0.00 43 1015.2
20260502063304 45 37 0.0 0.9 0.00 0.00 0.00 41 1015.2
20260502062804 46 37 0.0 0.0 0.00 0.00 0.00 39 1015.2
20260502060816 47 37 0.0 0.9 0.00 0.00 0.00 39 1015.2
20260502055804 47 37 0.0 0.9 0.00 0.00 0.00 38 1015.2
20260502053804 47 37 0.9 1.7 0.00 0.00 0.00 37 1015.2
20260502052306 47 37 0.9 1.7 0.00 0.00 0.00 37 1015.2
20260502051304 47 37 0.0 0.0 0.00 0.00 0.00 36 1015.2
20260502050804 48 37 0.0 0.0 0.00 0.00 0.00 36 1015.2
20260502045804 48 37 0.0 0.0 0.00 0.00 0.00 35 1015.2
20260502044304 48 37 0.0 0.0 0.00 0.00 0.00 34 1015.2
20260502043804 48 37 0.0 0.0 0.00 0.00 0.00 34 1015.2
20260502042306 48 37 0.0 0.0 0.00 0.00 0.00 30 1015.2
20260502041804 49 37 0.0 0.0 0.00 0.00 0.00 30 1015.2